Theta_e
314 315 314 314 313 305 300 299 303 306 307 310 311 313 315 314 312 309 307 305 304 302 303 306 306 305 305 305 308 308 308 314 322 323 324 323 326 328 327 329 327 330 333 332 329 335 337 334 337 340 334 335 334 334
313 314 314 314 313 304 299 299 303 306 309 310 312 313 314 314 311 309 306 305 304 303 304 308 308 308 308 306 304 302 307 309 315 322 322 325 326 325 324 328 327 328 329 330 327 337 331 329 331 331 331 334 334 334
312 314 313 313 312 302 298 299 303 307 310 310 312 314 314 314 311 309 306 305 306 302 304 303 305 309 308 308 308 304 301 306 318 315 318 323 326 323 324 323 328 328 324 330 332 333 332 330 329 331 331 331 332 332
312 313 313 313 310 300 299 301 305 309 309 310 311 313 314 313 310 308 307 305 305 303 306 307 307 309 310 309 307 307 304 309 309 308 311 315 326 321 324 321 327 327 325 326 335 333 330 328 328 328 328 331 333 333
311 313 313 312 307 299 301 303 307 310 309 310 312 312 314 313 310 308 308 307 306 306 306 306 306 306 306 307 306 305 305 301 303 307 313 318 316 323 322 323 325 326 326 329 331 327 326 325 327 328 328 329 332 332
311 312 312 310 302 298 301 304 307 309 311 311 312 314 313 311 309 307 303 308 306 305 304 303 301 300 305 307 305 302 303 300 306 310 312 313 312 315 318 321 323 326 323 324 328 327 326 324 325 325 326 325 325 330
312 312 311 307 299 299 300 303 308 310 311 312 313 313 313 311 309 306 305 306 305 306 301 302 303 304 309 309 307 305 306 306 308 309 312 313 313 313 314 317 319 325 325 324 325 326 327 327 325 324 325 331 330 330
311 311 309 302 299 300 302 305 309 311 312 312 313 313 311 310 309 309 311 310 307 307 302 305 306 305 310 312 309 305 308 308 309 311 309 311 309 311 313 312 316 324 324 324 325 325 324 322 328 328 328 327 328 328
311 310 304 299 299 301 303 306 309 311 312 313 312 311 309 308 305 308 307 307 308 305 306 306 309 312 306 308 311 311 307 311 308 313 311 311 311 313 314 312 324 325 323 321 322 322 324 327 328 326 326 326 326 326
309 306 301 300 300 302 303 306 309 311 312 312 310 307 307 307 308 305 304 302 301 300 299 301 301 308 305 308 312 314 312 311 312 312 309 312 313 309 311 316 321 323 322 322 321 325 326 327 326 324 325 324 324 323
304 301 299 299 300 301 303 306 309 311 310 308 304 306 307 308 306 304 306 305 304 306 302 302 303 304 302 307 311 312 318 317 316 316 313 313 317 321 321 322 322 322 321 321 317 320 323 323 323 324 324 323 324 324
301 298 298 298 298 300 306 308 310 310 311 310 307 306 307 304 304 309 308 308 309 311 308 307 307 303 303 306 312 319 324 320 323 320 323 326 323 321 320 319 319 320 322 323 320 321 322 321 323 323 321 320 321 323
299 298 298 298 298 303 308 310 311 310 308 309 310 311 308 307 307 314 316 313 311 310 311 309 308 305 303 306 319 322 325 324 319 324 325 322 322 324 322 322 322 322 324 324 323 322 323 322 323 322 321 322 322 321
297 297 297 299 304 307 310 310 309 307 309 310 312 310 311 312 311 310 312 310 310 311 311 308 308 307 307 315 319 323 323 322 326 323 325 323 322 323 322 322 322 323 323 323 322 320 319 320 321 322 322 320 321 321
298 298 298 302 305 308 309 308 307 307 308 310 310 311 310 309 308 309 308 309 310 309 309 308 307 305 307 320 320 319 322 324 324 327 323 323 322 325 324 322 320 321 320 319 319 319 320 319 318 318 318 320 317 321
298 296 297 304 305 307 307 307 306 307 308 309 310 312 310 310 311 310 309 309 308 309 307 305 308 309 317 319 321 323 322 321 321 321 322 322 322 322 321 321 320 319 320 320 320 320 319 318 317 317 318 319 319 321
295 295 295 302 305 307 307 307 306 307 309 311 309 306 308 309 310 310 309 310 309 311 313 310 310 311 313 318 321 318 320 320 320 319 323 320 321 317 317 318 317 316 316 316 317 318 318 320 322 320 318 320 321 319
299 295 296 305 307 307 306 306 307 308 310 307 307 305 307 309 310 311 309 310 311 313 313 314 310 315 315 318 318 317 316 316 316 315 319 322 319 316 317 315 316 317 317 317 318 318 319 317 316 317 321 321 321 321
296 295 302 306 306 305 305 306 306 308 306 304 304 304 305 307 308 309 308 310 312 311 310 312 314 314 315 315 316 315 316 317 320 319 319 317 320 319 317 318 319 319 318 318 319 318 319 321 320 320 320 320 320 321
295 302 305 305 305 306 306 304 306 306 307 306 304 305 305 306 308 308 310 310 308 309 312 314 313 313 314 314 313 314 313 315 320 322 321 320 320 319 319 319 318 319 319 320 319 318 319 321 322 321 322 321 320 320
301 304 305 305 305 306 304 302 303 303 304 305 304 306 307 304 307 308 309 308 310 310 311 309 311 310 311 313 315 315 314 315 316 319 320 321 319 318 319 321 322 322 320 318 317 317 318 318 318 321 321 321 321 320
301 303 304 305 305 304 303 304 304 303 304 304 305 308 310 310 310 311 309 312 311 310 309 310 310 310 312 312 312 315 315 316 316 317 319 318 319 316 316 319 322 319 320 318 317 317 317 318 320 321 321 321 320 320
303 303 303 303 305 301 301 306 308 307 310 308 309 312 311 311 310 308 311 309 310 309 310 309 310 314 312 314 315 316 316 315 315 317 317 317 317 318 318 318 318 317 315 317 317 317 318 318 318 318 320 319 319 319
302 303 304 303 305 304 305 308 307 309 308 310 310 312 312 311 310 312 313 312 311 311 311 310 311 309 309 310 311 311 314 314 315 317 317 316 315 316 316 317 318 317 317 318 318 318 317 318 318 319 319 318 318 317
300 301 303 304 307 309 311 310 310 310 311 310 312 312 313 312 314 314 316 315 316 315 313 314 313 310 311 310 309 312 316 316 315 317 318 318 317 315 316 317 316 317 317 317 317 317 316 316 317 317 318 318 317 317
299 304 303 306 308 310 311 311 309 309 310 312 313 313 314 317 317 319 318 316 316 315 315 314 314 314 313 312 312 313 317 319 318 316 316 317 317 315 314 314 314 316 317 317 316 315 315 315 315 316 316 316 316 317
302 306 303 302 307 309 311 309 309 311 314 315 316 315 316 314 315 318 315 314 314 316 317 317 316 315 315 315 316 317 318 318 317 318 317 318 318 318 317 316 315 317 317 317 317 317 316 315 315 315 315 315 315 316
302 302 306 305 307 308 312 313 313 314 313 316 316 316 317 320 320 318 316 318 316 317 317 317 317 317 317 318 318 318 317 317 318 318 318 317 316 317 317 316 316 316 316 317 317 317 316 315 316 316 316 314 315 315
305 305 308 310 311 311 312 315 314 315 314 316 319 321 321 319 318 317 316 317 318 317 316 317 317 317 317 317 316 316 317 317 316 315 315 312 310 314 316 314 314 314 316 316 316 316 315 315 316 316 315 314 315 315
306 306 311 310 310 310 313 313 317 315 314 315 314 315 317 316 317 317 317 317 317 316 317 317 316 316 315 317 317 317 317 316 316 315 312 313 313 311 309 310 312 312 313 314 314 314 315 316 316 316 316 315 314 315
310 310 314 313 314 314 314 313 314 315 313 313 313 316 316 315 313 316 317 317 316 316 316 317 317 317 315 315 315 314 315 316 312 309 309 309 309 308 308 308 307 307 307 307 306 305 306 306 306 307 309 302 302 301
311 311 315 317 316 316 316 316 315 316 315 314 314 313 314 312 315 315 315 314 314 314 313 314 314 310 312 315 315 312 309 308 307 307 307 307 307 306 305 305 305 305 304 303 303 303 302 301 301 300 299 299 299 299
314 314 315 315 316 317 316 318 318 317 316 316 317 316 316 317 316 315 311 308 308 309 310 311 309 309 309 310 310 307 307 306 306 306 306 306 305 304 304 303 303 302 301 301 301 300 299 299 299 299 298 298 298 298
Wind_Speed
23 23 23 23 20 18 17 14 13 12 12 16 13 14 14 12 9 7 2 7 2 3 6 7 5 5 2 2 3 4 5 4 4 4 1 1 1 3 4 2 3 1 1 2 1 3 0 6 5 1 4 2 1 1
23 24 23 24 20 19 17 14 13 12 12 14 13 14 15 13 10 6 3 4 4 5 6 21 26 29 25 20 4 1 3 2 4 2 1 0 2 0 2 3 1 3 3 2 3 2 2 5 3 5 4 3 2 2
23 23 23 23 20 18 16 14 12 11 12 11 12 15 15 14 11 9 5 6 4 2 6 2 7 11 13 28 30 5 4 6 3 4 3 2 3 3 2 4 2 2 2 1 2 2 3 5 5 1 2 3 2 5
22 24 24 24 20 18 16 14 11 10 12 13 14 15 15 13 10 10 6 4 4 0 2 6 8 16 13 12 21 39 11 1 2 2 0 2 2 4 3 3 3 2 5 3 2 3 4 6 6 1 7 4 5 4
23 24 25 25 21 17 16 14 11 12 14 14 15 16 14 11 9 9 12 14 11 2 3 6 20 18 9 12 22 30 21 4 1 1 1 3 2 1 2 1 3 5 6 4 5 7 4 6 5 2 4 5 3 4
23 26 26 24 20 18 16 14 12 13 14 14 16 15 14 11 8 4 3 1 10 8 1 4 6 6 12 8 16 11 16 4 3 4 4 3 4 2 0 2 5 3 4 3 1 6 3 4 6 2 3 4 5 1
23 25 26 22 18 17 16 15 13 14 14 13 15 15 13 11 9 4 3 5 12 5 0 4 5 5 8 5 1 3 6 3 4 3 3 3 3 3 2 3 6 4 6 3 1 4 5 3 3 4 4 3 4 5
27 26 25 21 21 18 17 15 15 15 14 14 15 13 11 8 7 8 8 13 15 4 1 2 5 5 5 3 2 0 3 1 2 3 1 2 2 2 3 8 5 5 5 5 6 6 6 3 3 5 6 4 7 4
28 28 26 23 19 17 15 15 16 16 15 16 16 12 5 4 3 2 2 2 11 2 2 1 2 4 5 2 2 3 2 1 1 3 4 4 1 3 7 5 5 7 5 7 2 6 3 7 5 4 5 5 6 4
30 29 26 24 21 17 15 15 16 16 20 21 12 4 2 6 4 6 1 3 3 2 1 3 1 4 2 2 3 2 1 3 1 4 3 3 4 5 7 7 6 5 6 6 6 5 5 5 5 5 4 3 5 5
33 30 25 22 20 16 15 19 21 22 24 5 5 3 2 6 4 2 0 2 2 3 3 4 5 3 2 2 3 1 2 1 2 2 2 1 3 5 4 3 6 6 4 6 5 6 9 9 9 7 5 5 7 6
30 28 26 24 21 13 17 24 26 22 10 9 7 4 4 2 3 1 3 2 4 4 3 3 5 5 3 2 1 2 1 3 3 3 0 2 4 3 3 6 5 2 4 4 5 7 8 8 8 5 5 6 9 11
26 24 22 21 20 19 22 25 31 13 14 6 2 2 3 0 2 4 4 3 2 3 3 3 2 2 2 1 1 1 3 4 3 2 2 4 3 1 4 3 6 5 10 9 9 11 12 8 10 9 7 9 9 9
25 22 22 21 20 22 23 30 19 16 3 2 3 2 3 3 4 4 4 3 4 3 2 1 2 2 0 1 1 2 2 2 3 1 3 2 2 3 2 3 5 5 7 8 8 8 8 7 5 3 2 1 2 3
24 23 20 19 16 22 27 23 22 6 3 2 2 4 5 4 4 4 4 4 5 4 1 1 1 2 1 1 1 2 1 3 2 3 3 4 4 12 6 3 6 6 6 6 5 4 3 2 1 0 1 7 5 0
23 20 15 22 18 22 28 19 9 3 1 1 2 1 2 1 3 2 3 4 3 2 1 3 2 2 1 1 1 3 2 2 3 4 7 3 3 4 6 5 5 7 8 7 6 5 5 5 6 5 5 4 6 5
14 6 20 20 20 21 23 6 4 2 2 2 2 2 3 4 4 4 2 4 2 2 1 2 0 0 1 1 1 2 1 3 3 5 7 6 3 7 5 5 7 8 7 6 4 5 5 5 7 8 5 4 7 9
5 17 21 21 27 22 5 3 3 1 3 2 1 4 2 3 3 4 3 3 2 2 2 1 3 2 1 1 3 2 2 3 2 3 5 11 10 5 8 6 7 6 5 4 2 3 3 7 8 7 8 7 6 6
21 26 28 29 16 6 3 2 1 1 4 2 3 3 3 3 4 5 3 4 0 3 3 2 3 1 2 3 3 3 3 2 2 3 4 9 22 15 7 5 3 1 3 1 4 7 9 10 11 10 10 9 12 13
24 29 29 18 5 4 3 0 3 2 3 3 2 2 3 3 2 3 3 2 2 2 2 0 3 3 4 4 4 4 3 2 1 2 1 5 12 12 4 3 2 2 2 3 5 4 4 3 7 9 11 14 14 15
19 23 16 5 3 3 3 3 2 4 3 3 2 3 3 2 2 1 1 1 2 2 2 3 3 3 5 5 4 4 5 1 0 0 2 4 7 9 7 3 4 4 3 2 2 8 9 9 13 14 12 13 13 14
15 15 5 1 2 2 0 5 3 2 1 3 3 2 1 1 1 1 0 1 3 4 4 3 3 3 3 4 7 8 6 2 2 2 11 17 6 4 2 3 4 1 1 1 1 3 7 10 10 9 8 11 12 13
12 8 3 1 3 3 5 1 1 2 2 2 1 1 2 1 2 1 1 2 3 3 3 3 3 4 4 9 13 11 7 9 8 4 5 5 9 2 1 3 3 2 1 1 3 5 8 9 10 11 11 13 14 15
9 3 3 3 2 3 2 1 2 2 1 1 1 1 1 2 2 2 2 2 3 0 1 2 2 1 2 4 3 4 9 12 10 13 5 9 2 1 1 1 1 1 1 3 5 6 7 9 12 10 10 9 7 7
4 3 3 2 2 2 2 2 1 1 1 1 3 3 2 1 1 1 1 3 2 2 3 3 2 3 3 3 4 8 9 7 5 1 2 2 4 4 7 8 10 9 4 2 4 2 7 7 7 7 7 8 9 10
1 3 4 4 2 2 2 3 3 3 2 2 2 1 2 3 2 3 2 1 2 3 2 4 3 2 3 6 2 3 8 4 4 2 3 2 4 2 2 1 1 2 3 4 6 8 9 8 9 8 5 6 9 11
1 2 1 1 1 2 2 2 1 1 2 1 1 2 2 1 3 3 2 1 1 5 7 3 10 9 4 4 7 8 5 6 3 6 7 5 4 2 4 3 5 6 8 11 12 11 10 10 12 11 13 10 9 7
2 2 2 2 1 2 2 2 1 1 2 1 2 4 4 3 1 3 1 3 5 9 13 14 9 4 2 5 3 4 7 9 11 8 3 3 7 7 12 12 12 13 14 14 13 11 10 13 17 18 13 9 4 0
3 2 2 2 0 0 1 2 3 3 4 5 3 2 2 2 4 3 9 11 14 13 10 13 17 16 16 14 11 11 9 5 4 5 5 4 6 9 20 20 20 19 17 17 15 13 11 10 12 10 5 6 2 1
3 3 2 2 1 3 4 5 3 2 2 3 3 3 3 5 13 15 14 15 16 15 15 15 15 19 13 9 8 11 12 12 14 8 3 3 5 12 16 17 18 19 17 15 13 13 12 12 10 11 8 8 9 8
3 3 2 3 3 2 3 1 4 9 4 4 4 8 3 2 4 21 26 22 15 15 19 16 17 16 18 15 12 10 9 11 11 11 10 11 12 13 15 15 14 16 16 17 18 17 15 15 15 13 14 17 17 17
5 5 3 3 3 2 5 4 4 4 4 4 4 3 4 4 6 9 26 25 24 20 18 15 14 16 16 14 14 13 13 11 12 12 12 13 13 13 12 13 15 15 15 15 16 15 15 16 16 16 17 17 17 17
2 1 4 4 4 5 4 5 3 4 5 6 5 6 5 2 3 3 15 22 22 19 15 13 16 18 19 14 14 17 13 12 12 11 10 9 11 13 14 14 14 14 14 16 15 15 16 16 16 14 16 17 17 16
Wind_Direction
259 254 245 240 244 245 246 248 249 251 245 213 215 221 219 222 223 239 253 201 183 217 274 217 224 193 286 175 217 297 352 337 356 44 69 282 217 301 327 301 306 259 28 316 317 80 89 12 332 152 230 283 111 284
255 251 244 237 238 239 241 244 245 255 247 197 210 216 214 220 214 225 259 176 236 211 254 287 265 257 241 217 164 272 218 331 236 87 245 226 267 281 183 310 81 329 189 208 185 176 322 322 272 293 221 141 54 41
256 248 239 234 233 235 236 235 236 255 205 205 212 213 208 214 215 221 258 297 281 286 287 301 244 283 247 240 227 179 262 209 246 193 182 214 248 140 195 244 258 230 169 161 23 298 287 297 294 304 356 101 128 140
250 243 232 227 225 230 232 225 222 218 205 213 216 205 213 207 212 231 244 219 306 276 285 283 314 283 293 248 215 209 221 39 66 58 104 247 210 180 228 236 196 216 132 157 271 282 308 273 249 303 327 303 127 107
244 239 227 218 216 221 224 221 216 203 205 210 209 202 206 201 212 244 266 268 252 194 254 283 303 291 301 238 217 213 221 213 86 356 280 249 232 155 268 342 260 183 182 168 219 204 182 239 268 149 306 295 171 125
238 230 219 212 212 212 219 212 213 199 194 208 196 201 194 195 204 240 333 354 177 188 47 307 295 291 303 219 212 194 206 169 181 159 225 261 262 110 331 240 266 205 196 173 188 193 178 292 292 279 307 292 255 172
234 220 212 203 204 206 208 205 196 192 183 186 189 189 194 193 202 201 198 134 156 358 125 307 311 275 308 339 38 111 153 186 158 191 202 224 266 150 191 227 259 206 191 122 62 87 312 263 301 278 193 39 82 66
224 210 202 196 198 200 199 191 190 184 180 188 185 184 182 196 250 273 263 216 222 271 115 281 277 327 3 327 338 82 141 85 238 206 81 206 334 46 249 247 270 145 155 151 182 205 225 313 56 72 79 90 69 44
209 200 190 189 190 189 183 181 183 180 181 170 161 162 152 211 223 246 324 207 183 208 240 213 255 274 348 328 277 345 79 160 295 205 218 122 278 234 230 216 202 195 171 139 161 184 143 135 139 103 112 85 91 60
197 187 185 183 181 178 176 171 166 175 157 155 136 153 228 215 164 151 141 43 16 322 51 231 242 268 22 359 302 341 50 227 213 243 103 158 246 246 249 233 240 183 177 126 105 111 110 120 170 190 166 138 134 157
179 177 173 174 176 175 173 166 170 168 152 168 158 195 142 140 158 48 146 158 181 251 211 234 194 221 272 188 263 241 309 282 299 289 171 209 271 257 329 171 163 191 213 215 235 194 172 165 175 153 167 152 144 154
177 177 179 179 165 165 172 176 173 162 178 179 145 130 136 86 56 131 224 257 200 232 214 200 221 195 261 135 103 309 317 12 267 321 332 264 261 320 6 75 61 85 136 101 141 138 135 150 152 159 155 162 177 194
162 168 173 166 162 183 188 178 170 172 150 136 142 105 83 156 78 199 209 244 247 226 224 241 249 203 7 64 273 27 36 257 307 339 244 235 279 25 11 94 91 82 108 99 92 95 115 129 153 160 184 207 203 215
158 163 171 170 172 178 177 170 167 158 124 104 145 128 179 195 238 205 214 227 250 251 338 240 283 160 193 143 177 134 263 28 287 280 257 292 336 29 92 352 102 83 89 102 109 120 136 146 147 161 226 180 175 255
159 166 160 162 166 166 175 157 164 132 98 163 133 189 211 234 258 241 242 275 262 262 208 82 5 89 326 159 318 77 19 278 229 264 273 198 182 133 145 130 113 109 104 106 118 131 144 116 89 275 283 329 302 259
148 140 156 160 155 164 172 150 138 63 50 246 214 297 283 192 299 299 265 259 249 247 93 66 92 33 322 94 119 222 199 251 311 311 309 266 184 126 135 156 137 129 137 147 154 168 176 203 215 240 264 281 188 177
150 123 154 149 147 154 142 101 71 79 297 317 294 269 219 248 238 259 268 254 271 83 94 87 18 163 69 47 272 190 248 265 304 328 349 340 216 153 180 149 144 147 153 157 154 172 197 226 240 239 256 262 222 240
122 143 145 137 143 137 91 64 104 120 257 253 242 272 233 243 276 283 279 277 48 52 25 246 139 80 84 348 331 292 303 294 234 340 33 354 309 185 161 148 150 166 184 167 222 265 282 234 229 257 256 262 237 241
147 148 149 144 131 108 108 106 89 201 240 259 261 239 234 245 261 264 280 285 344 112 117 53 86 136 211 237 227 248 234 206 304 310 73 258 294 265 181 151 166 136 100 246 251 261 264 255 245 263 252 236 228 243
145 149 147 151 118 76 80 300 190 199 249 227 221 243 219 212 203 232 247 327 48 75 27 98 188 197 191 218 207 217 229 286 193 75 348 253 274 292 242 140 180 212 252 303 303 332 337 273 237 273 253 238 236 250
131 158 159 160 31 45 124 149 199 211 243 224 233 191 251 326 263 352 2 19 61 175 226 219 215 239 246 274 252 185 224 193 342 96 278 306 311 310 268 248 220 216 229 241 331 318 329 305 308 318 287 252 253 271
138 142 109 8 31 17 85 209 182 240 174 251 305 174 206 302 299 269 351 109 216 229 201 190 198 188 225 252 252 237 311 257 316 257 257 278 290 277 274 228 143 177 168 244 222 294 314 320 309 316 299 284 292 289
114 109 69 55 31 43 265 303 181 220 205 252 4 354 316 307 248 20 274 227 252 233 191 202 220 230 253 264 283 290 315 311 325 306 272 254 233 236 64 58 54 45 27 314 314 312 313 316 307 299 295 297 298 293
121 132 136 156 203 254 272 267 227 268 309 27 163 243 245 261 349 49 264 259 255 73 183 234 228 1 326 297 268 278 318 321 316 323 317 184 127 294 107 236 161 119 122 298 312 323 333 330 333 315 314 314 314 302
76 289 131 173 202 251 230 262 234 91 211 253 34 330 304 45 9 298 289 271 254 231 195 198 232 207 233 268 284 297 319 237 208 179 261 252 147 93 65 78 54 64 72 106 59 358 346 336 344 331 296 289 283 291
130 225 154 202 195 227 277 169 177 201 201 125 238 348 356 17 338 270 261 209 287 245 202 194 195 219 255 221 260 327 358 56 112 109 5 85 91 122 127 92 4 301 9 12 350 332 320 323 334 336 335 318 305 295
157 185 271 248 286 283 298 322 227 139 157 220 91 61 38 303 260 262 308 359 180 316 334 280 212 223 249 251 262 246 229 252 251 131 113 92 56 355 344 336 298 316 331 339 335 322 309 312 337 334 321 335 339 325
257 289 223 206 227 208 311 278 234 105 71 57 352 184 209 224 72 297 280 345 354 21 54 55 55 65 156 120 119 159 125 120 121 132 108 5 360 14 19 9 356 339 325 317 317 317 318 309 319 324 318 301 324 83
232 221 242 211 226 165 219 273 220 214 186 196 208 122 81 44 351 326 2 66 71 73 65 58 48 86 97 94 93 73 58 88 71 51 35 350 349 359 354 355 2 8 4 358 356 353 348 334 326 318 292 269 162 290
228 183 240 154 238 242 218 181 231 197 152 122 108 87 48 16 20 49 58 60 64 60 57 56 54 56 54 77 71 62 56 63 56 56 81 15 337 353 352 350 347 350 349 350 11 36 52 53 50 51 48 44 36 41
117 203 240 173 249 220 198 138 60 96 83 68 69 101 103 163 40 40 37 38 47 47 43 42 47 43 42 37 36 39 49 62 58 53 44 24 14 20 24 31 45 48 51 53 54 48 45 48 47 44 58 51 45 41
173 207 215 133 57 23 113 75 60 70 44 49 25 16 29 33 33 357 11 21 31 23 16 36 59 60 66 80 80 81 84 76 53 44 43 44 41 44 45 43 46 49 49 47 46 50 59 55 52 48 41 34 28 26
160 173 78 74 47 55 26 81 48 67 62 63 50 59 46 50 55 328 25 37 35 31 38 85 81 76 71 71 86 72 68 60 47 42 45 48 49 47 43 42 41 41 46 50 54 66 55 50 46 47 37 33 32 31